Regional Weather Roundup
Issued by NWS

Home | Current Version | Previous Version | Graphics & Text | Print | Product List | Glossary On
Versions: 1 2 3 4 5 6 7 8 9 10 11 12 13 14 15 16 17 18 19 20 21 22 23 24 25 26 27 28 29 30 31 32 33 34 35 36 37 38 39 40 41 42 43 44 45 46 47 48 49 50
206
ASUS44 KMEG 300810
RWRTN
TENNESSEE HOURLY STATE WEATHER ROUNDUP
NATIONAL WEATHER SERVICE MEMPHIS TN
300 AM CDT SAT APR 30 2016

TNZ002-004-019-021-049-052-054-088>092-300900-
WEST TENNESSEE

CITY           SKY/WX    TMP DP  RH WIND       PRES   REMARKS
MEMPHIS INTL   CLOUDY    66  62  87 SE5       29.83R
NWS MEMPHIS      N/A     63 N/A N/A MISG        N/A
JACKSON        CLOUDY    63  60  90 CALM      29.85F
DYERSBURG      CLOUDY    61  59  94 E10         N/A
UNION CITY     CLOUDY    61  59  94 E10       29.84F
LEXINGTON      CLOUDY    61  61 100 E5        29.85F
$$

TNZ008-025-027-028-033-062-065-066-300900-
NORTH MIDDLE TENNESSEE

CITY           SKY/WX    TMP DP  RH WIND       PRES   REMARKS
NASHVILLE      CLOUDY    65  60  84 CALM      29.91S
CLARKSVILLE    CLOUDY    62  58  86 E3        29.90F
SMYRNA         MOCLDY    65  61  87 CALM      29.92S
COOKEVILLE     MOCLDY    61  57  88 CALM      29.92S
CROSSVILLE     CLOUDY    65  52  62 CALM      29.98R
$$

TNZ061-075-076-078-094-096-097-300900-
SOUTH MIDDLE TENNESSEE

CITY           SKY/WX    TMP DP  RH WIND       PRES   REMARKS
FAYETTEVILLE   MOCLDY    64  59  82 CALM      29.90S
TULLAHOMA      MOCLDY    63  61  94 CALM      29.92S
WINCHESTER     CLEAR     64  55  72 SE5       29.91F
MCMINNVILLE    MOCLDY    63  61  94 CALM      29.92F
COLUMBIA         N/A    N/A N/A N/A CALM      29.89F
SHELBYVILLE    CLOUDY    64  59  82 CALM      29.93R
$$

TNZ017-018-042-046-047-300900-
NORTHEAST TENNESSEE

CITY           SKY/WX    TMP DP  RH WIND       PRES   REMARKS
TRI CITIES     MOCLDY    59  54  83 CALM      30.00F
$$

TNZ012-013-036-069-073-074-300900-
CENTRAL EAST TENNESSEE

CITY           SKY/WX    TMP DP  RH WIND       PRES   REMARKS
KNOXVILLE      CLOUDY    62  56  80 NE3       29.93F
OAK RIDGE      PTCLDY    62  54  74 NE3       29.96F
MORRISTOWN     MOSUNNY   63  52  67 E3        29.97S
$$

TNZ083-085-099-300900-
SOUTHEAST TENNESSEE

CITY           SKY/WX    TMP DP  RH WIND       PRES   REMARKS
CHATTANOOGA    CLOUDY    65  58  78 CALM      29.93S
$$

SKY/WX REPORTED AS FAIR MEANS FEW OR NO CLOUDS BELOW
12 THOUSAND FEET.





USA.gov is the U.S. government's official web portal to all federal, state and local government web resources and services.